This demonstration page uses our WeatherBlox Daily Observations layout. Learn more.

Left ArrowRight Arrow

31.31129, -92.44514

Hourly Observations for August 2, 2016

Temp ( °F °C ) Dew Point ( °F °C ) Humidity (%) Winds ( mph kmh ) Pressure ( in mb ) Visibility ( mi km ) Precip ( " mm )
12:53 am 00:53 Clear 79 26.1 77 25 94 94 S 3 6 30.05 1018 8 13 0.00 0.00
1:53 am 01:53 Clear 80 26.7 77 25 90 90 Calm 30.05 1018 9 14 0.00 0.00
2:53 am 02:53 Clear 78 25.6 77 25 97 97 WSW 3 6 30.04 1017 8 13 0.00 0.00
3:53 am 03:53 Clear 78 25.6 76 24.4 93 93 W 3 6 30.05 1018 8 13 0.00 0.00
4:53 am 04:53 Clear 77 25 76 24.4 96 96 Calm 30.06 1018 7 11 0.00 0.00
5:53 am 05:53 Clear 77 25 76 24.4 96 96 Calm 30.07 1018 8 13 0.00 0.00
6:53 am 06:53 Sunny with Mist and Fog 77 25 76 24.4 96 96 Calm 30.08 1019 6 10 0.00 0.00
7:50 am 07:50 Mostly Sunny 81 27 77 25 89 89 Calm 30.09 1019 7 11 0.00 0.00
7:53 am 07:53 Mostly Sunny 80 26.7 77 25 90 90 Calm 30.09 1019 7 11 0.00 0.00
8:53 am 08:53 Sunny 83 28.3 78 25.6 85 85 W 6 9 30.10 1019 9 14 0.00 0.00
9:53 am 09:53 Sunny 86 30 76 24.4 72 72 W 8 13 30.10 1019 10 16 0.00 0.00
10:53 am 10:53 Sunny 89 31.7 77 25 68 68 NW 3 6 30.11 1020 10 16 0.00 0.00
11:53 am 11:53 Sunny 91 32.8 74 23.3 57 57 N 7 11 30.11 1020 10 16 0.00 0.00
12:53 pm 12:53 Mostly Sunny 93 33.9 75 23.9 56 56 NNE 6 9 30.09 1019 10 16 0.00 0.00
1:53 pm 13:53 Sunny 94 34.4 74 23.3 52 52 NNE 5 7 30.06 1018 10 16 0.00 0.00
2:53 pm 14:53 Sunny 96 35.6 72 22.2 46 46 N 6 9 30.04 1017 10 16 0.00 0.00
3:53 pm 15:53 Sunny 95 35 70 21.1 44 44 Calm 30.02 1017 10 16 0.00 0.00
4:53 pm 16:53 Sunny 95 35 70 21.1 44 44 NNW 3 6 30.01 1016 10 16 0.00 0.00
5:53 pm 17:53 Sunny 95 35 71 21.7 46 46 NW 3 6 29.99 1016 10 16 0.00 0.00
6:53 pm 18:53 Sunny 94 34.4 73 22.8 51 51 NNE 3 6 29.98 1015 10 16 0.00 0.00
7:53 pm 19:53 Sunny 87 30.6 78 25.6 75 75 Calm 29.98 1015 10 16 0.00 0.00
8:53 pm 20:53 Clear 83 28.3 77 25 82 82 Calm 29.98 1015 10 16 0.00 0.00
9:53 pm 21:53 Clear 82 27.8 75 23.9 79 79 Calm 30.00 1016 10 16 0.00 0.00
10:53 pm 22:53 Clear 81 27.2 78 25.6 91 91 Calm 30.01 1016 9 14 0.00 0.00
11:53 pm 23:53 Clear 80 26.7 77 25 90 90 Calm 30.01 1016 9 14 0.00 0.00

Powered by AerisWeather